Weather History for Spirit of St Louis, MO

Change the Weather History Date:

Thursday, January 10, 2013

  Actual Average Record
Temperature  
Mean Temperature 45 °F -  
Max Temperature 53 °F 37 °F - (-1)
Min Temperature 39 °F 19 °F - (-1)
Degree Days  
Heating Degree Days 20    
Moisture  
Dew Point 43 °F    
Average Humidity 87    
Maximum Humidity 100    
Minimum Humidity 53    
Precipitation  
Precipitation 0.27 in - - ()
Sea Level Pressure  
Sea Level Pressure 30.03 in    
Wind  
Wind Speed 7 mph (East)    
Max Wind Speed 13 mph    
Max Gust Speed 20 mph    
Visibility 5 miles    
Events Fog , Rain    
Averages and records for this station are not official NWS values.
T = Trace of Precipitation, MM = Missing Value Source: NWS Daily Summary

Daily Weather History Graph

Daily Weather History Graph

Search for Another Location

Airport:

Trip Planner

Search our weather history database for the weather conditions in past years. The results will help you decide how hot, cold, wet, or windy it might be!

Date:

Astronomy

Jan. 10, 2013 Rise Set
Actual Time 7:20 AM CST 5:00 PM CST
Civil Twilight 6:51 AM CST 5:29 PM CST
Nautical Twilight 6:18 AM CST 6:02 PM CST
Astronomical Twilight 5:46 AM CST 6:34 PM CST
Moon 6:00 AM CST (1/10) 4:08 PM CST (1/10)
Length of Visible Light 10h 38m
Length of Day
9h 40m
Waning Crescent, 2% of the Moon is Illuminated
Jan 10
Waning Crescent
Jan 11
New
Jan 18
First Quarter
Jan 26
Full
Feb 3
Last Quarter

Hourly Weather History & Observations

Time (CST) Temp. Windchill Dew Point Humidity Pressure Visibility Wind Dir Wind Speed Gust Speed Precip Events Conditions
12:54 AM 39.2 °F 33.6 °F 30.2 °F 70% 30.44 in 10.0 mi East 8.1 mph - N/A   Clear
1:54 AM 39.0 °F 34.8 °F 30.9 °F 73% 30.42 in 10.0 mi ENE 5.8 mph - N/A   Clear
2:54 AM 44.1 °F 41.5 °F 28.9 °F 55% 30.41 in 10.0 mi ENE 4.6 mph - N/A   Clear
3:54 AM 45.0 °F 40.6 °F 28.9 °F 53% 30.37 in 10.0 mi East 8.1 mph - N/A   Partly Cloudy
4:54 AM 45.0 °F 40.6 °F 30.0 °F 56% 30.34 in 10.0 mi East 8.1 mph - N/A   Overcast
5:54 AM 43.0 °F 37.2 °F 33.1 °F 68% 30.32 in 10.0 mi East 10.4 mph - 0.00 in Rain Light Rain
6:47 AM 44.6 °F 39.2 °F 30.2 °F 57% 30.28 in 10.0 mi East 10.4 mph - 0.00 in   Overcast
6:54 AM 45.0 °F 39.7 °F 30.9 °F 58% 30.30 in 10.0 mi East 10.4 mph - 0.00 in   Overcast
7:47 AM 44.6 °F 38.4 °F 35.6 °F 71% 30.28 in 10.0 mi East 12.7 mph - 0.00 in   Overcast
7:54 AM 43.0 °F 36.8 °F 36.0 °F 76% 30.28 in 9.0 mi East 11.5 mph 19.6 mph 0.00 in   Overcast
8:54 AM 42.1 °F 37.1 °F 37.9 °F 85% 30.27 in 6.0 mi East 8.1 mph - 0.02 in Rain Light Rain
9:54 AM 42.1 °F 37.1 °F 39.0 °F 89% 30.24 in 4.0 mi ESE 8.1 mph - 0.02 in   Overcast
10:11 AM 42.8 °F 38.0 °F 39.2 °F 87% 30.21 in 9.0 mi ESE 8.1 mph - N/A   Overcast
10:42 AM 42.8 °F 40.1 °F 39.2 °F 87% 30.21 in 10.0 mi East 4.6 mph - N/A   Overcast
10:54 AM 43.0 °F 37.2 °F 39.9 °F 89% 30.20 in 10.0 mi East 10.4 mph - N/A   Overcast
11:54 AM 44.1 °F 38.6 °F 42.1 °F 93% 30.12 in 5.0 mi East 10.4 mph - N/A   Overcast
12:47 PM 44.6 °F 40.2 °F 42.8 °F 93% 30.08 in 2.5 mi East 8.1 mph - N/A   Overcast
12:54 PM 45.0 °F 40.6 °F 43.0 °F 93% 30.08 in 1.8 mi East 8.1 mph - N/A   Overcast
1:05 PM 44.6 °F 40.2 °F 42.8 °F 93% 30.07 in 0.8 mi ESE 8.1 mph - N/A   Overcast
1:54 PM 46.0 °F 41.4 °F 44.1 °F 93% 30.06 in 0.8 mi ESE 9.2 mph - N/A   Overcast
2:54 PM 46.9 °F - 45.0 °F 93% 30.01 in 0.5 mi ESE 5.8 mph - N/A Fog Fog
3:54 PM 46.9 °F - 46.0 °F 97% 29.98 in 0.8 mi NE 3.5 mph - 0.00 in   Light Drizzle
4:54 PM 46.9 °F - 46.0 °F 97% 29.95 in 0.5 mi ENE 5.8 mph - 0.01 in Fog Fog
5:54 PM 46.9 °F - 46.0 °F 97% 29.95 in 0.8 mi Calm Calm - 0.00 in   Mist
6:54 PM 46.9 °F - 46.0 °F 97% 29.92 in 0.8 mi ENE 5.8 mph - 0.01 in   Overcast
7:03 PM 46.4 °F 43.5 °F 46.4 °F 100% 29.91 in 1.2 mi ENE 5.8 mph - N/A   Overcast
7:14 PM 48.2 °F - 46.4 °F 93% 29.91 in 3.0 mi East 3.5 mph - N/A   Overcast
7:54 PM 51.1 °F - 50.0 °F 96% 29.88 in 6.0 mi East 3.5 mph - 0.01 in   Overcast
8:54 PM 51.1 °F - 50.0 °F 96% 29.84 in 4.0 mi NNE 3.5 mph - 0.03 in Rain Light Rain
9:05 PM 51.8 °F - 48.2 °F 88% 29.82 in 2.0 mi ENE 4.6 mph - 0.02 in Rain Light Rain
9:29 PM 51.8 °F - 50.0 °F 94% 29.80 in 3.0 mi East 4.6 mph - 0.03 in Rain Light Rain
9:38 PM 51.8 °F - 50.0 °F 94% 29.81 in 2.0 mi Calm Calm - 0.06 in Rain Rain
9:50 PM 51.8 °F - 50.0 °F 94% 29.80 in 3.0 mi Calm Calm - 0.09 in Rain Rain
9:54 PM 51.1 °F - 50.0 °F 96% 29.80 in 2.0 mi North 5.8 mph - 0.10 in Rain Rain
10:24 PM 51.8 °F - 51.8 °F 100% 29.79 in 3.0 mi Calm Calm - 0.01 in Rain Light Rain
10:46 PM 51.8 °F - 48.2 °F 88% 29.79 in 1.8 mi WNW 3.5 mph - 0.04 in Rain Light Rain
10:54 PM 51.1 °F - 50.0 °F 96% 29.78 in 1.5 mi Calm Calm - 0.06 in Rain Light Rain
11:10 PM 51.8 °F - 51.8 °F 100% 29.79 in 3.0 mi South 5.8 mph - 0.01 in Rain Light Rain
11:17 PM 51.8 °F - 50.0 °F 94% 29.79 in 6.0 mi WNW 8.1 mph - N/A Rain Light Rain
11:22 PM 50.0 °F - 48.2 °F 94% 29.79 in 2.5 mi Calm Calm - 0.01 in   Overcast
11:30 PM 51.8 °F - 50.0 °F 94% 29.78 in 5.0 mi West 3.5 mph - 0.01 in   Mostly Cloudy
11:40 PM 51.8 °F - 50.0 °F 94% 29.79 in 9.0 mi West 4.6 mph - 0.01 in   Scattered Clouds
11:54 PM 53.1 °F - 51.1 °F 93% 29.79 in 10.0 mi WSW 4.6 mph - 0.01 in   Clear